Regional Weather Roundup
Issued by NWS Sioux Falls, SD

Home | Current Version | Previous Version | Graphics & Text | Print | Product List | Glossary Off
Versions: 1 2 3 4 5 6 7 8 9 10 11 12 13 14 15 16 17 18 19 20 21 22 23 24 25 26 27 28 29 30 31 32 33 34 35 36 37 38 39 40 41 42 43 44 45 46 47 48 49 50

000
ASUS43 KFSD 260302
RWRFSD

WEATHER ROUNDUP FOR SE SOUTH DAKOTA/SW MINNESOTA/NW IOWA
NATIONAL WEATHER SERVICE SIOUX FALLS SD
900 PM CST SAT FEB 25 2017

NOTE: "FAIR" INDICATES FEW OR NO CLOUDS BELOW 12,000 FEET WITH NO
SIGNIFICANT WEATHER AND OR OBSTRUCTIONS TO VISIBILITY.


SDZ038>040-050-052>070-260400-
SOUTHEAST SOUTH DAKOTA

CITY           SKY/WX    TMP DP  RH WIND       PRES   REMARKS
BROOKINGS      PTCLDY    23  19  85 S12       29.76S WCI  12
CHAMBERLAIN    PTCLDY    30  26  86 SW3       29.77S
HURON          CLEAR     27  22  81 SW7       29.77R WCI  19
MADISON        MOCLDY    25  25 100 S10       29.77S WCI  15
MITCHELL       CLOUDY    29  21  72 SW9       29.80S WCI  20
SIOUX FALLS    CLOUDY    23  18  81 S12       29.80F WCI  12
WINNER         MOCLDY    27  19  72 SW9       29.76F WCI  18
YANKTON        CLEAR     25  16  68 SW7       29.83S WCI  17
$$

MNZ071-072-080-081-089-090-097-098-260400-
SOUTHWEST MINNESOTA

CITY           SKY/WX    TMP DP  RH WIND       PRES   REMARKS
FAIRMONT       PTCLDY    21  16  81 S16       29.87F WCI   7
JACKSON        CLEAR     21  14  73 S10       29.84F WCI  10
LUVERNE        CLOUDY    21  16  79 S12       29.82F WCI   9
MARSHALL       MOCLDY    26  18  71 SW15      29.78F WCI  14
MONTEVIDEO     CLOUDY    28  19  69 SW10      29.79S WCI  19
PIPESTONE      CLEAR     25  16  68 SW12      29.78S WCI  14
REDWOOD FALLS  CLEAR     26  17  68 S15       29.81F WCI  14
TRACY          CLEAR     26  19  74 SW17G23   29.79F WCI  13
WINDOM         CLEAR     23  16  74 S12G20    29.82F WCI  12
WORTHINGTON    CLOUDY    22  16  78 S22       29.81F WCI   6
$$

IAZ001>003-012>014-020>022-031-032-NEZ013-014-SDZ071-260400-
NORTHWEST IOWA

CITY           SKY/WX    TMP DP  RH WIND       PRES   REMARKS
CHEROKEE       CLEAR     21  13  72 S7        29.87F WCI  12
DENISON        MOCLDY    25  19  80 S8        29.88F WCI  16
ESTHERVILLE    MOCLDY    17  14  88 S12       29.86F WCI   4
LE MARS        CLEAR     23  16  74 S10G16    29.87S WCI  12
SHELDON        MOCLDY    21  19  93 S10       29.83F WCI  10
SIOUX CITY     CLEAR     22  14  71 E7        29.88S WCI  13
SPENCER        CLEAR     17  11  77 S9        29.86F WCI   6
STORM LAKE     PTCLDY    18  14  86 S13       29.87F WCI   4
$$

ABBREVIATIONS USED IN REMARKS
   TC - TEMPERATURE IN CELSIUS
  WCI - WIND CHILL INDEX
   HX - HEAT INDEX
  VSB - VISIBILITY




USA.gov is the U.S. government's official web portal to all federal, state and local government web resources and services.